Location: Hall+in+Tirol
(47.2830°N, 11.5170°E)
Time: 23:18:23
(UTC+01:00)

Amateur Radio Satellites - All Passes

Search period start: 10 December 2016 22:48
Search period end: 11 December 2016 22:48
Location: Hall+in+Tirol, 47.2830°N, 11.5170°E

Satellite Date Start Highest point End Downlink Frequencies (MHz)
Time Altitude Azimuth
SO-50 10 Dec 22:50:52 22:51:19 10° 348° (NNW) 22:51:47 436.795
QB50P2 10 Dec 22:57:27 23:00:22 18° 91° (E) 23:03:15 145.880/145.840
POLYITAN 1 10 Dec 22:57:56 23:00:43 17° 91° (E) 23:03:29 437.675
DUCHIFAT 1 10 Dec 23:06:07 23:08:58 18° 91° (E) 23:11:48 145.980
HUMSAT D 10 Dec 23:06:35 23:06:47 10° 273° (W) 23:06:59 437.325/437.525
QB50P1 10 Dec 23:08:53 23:12:11 22° 93° (E) 23:15:27 145.935-145.965
JAS-2 10 Dec 23:10:09 23:15:00 37° 98° (E) 23:20:05 435.910
50 SAT 10 Dec 23:13:03 23:16:29 56° 73° (ENE) 23:19:57 437.505
UNISAT 6 10 Dec 23:14:35 23:18:43 41° 291° (WNW) 23:22:46 437.425
POPSAT HIP 1 10 Dec 23:30:31 23:34:26 35° 97° (E) 23:38:17 437.405
BUGSAT 1 10 Dec 23:42:16 23:44:58 17° 91° (E) 23:47:38 437.445
TIGRISAT 10 Dec 23:43:24 23:46:56 25° 296° (WNW) 23:50:26 435.000
ANTELSAT 10 Dec 23:46:21 23:49:44 22° 297° (WNW) 23:53:04 437.575/2403.000
AISAT 10 Dec 23:46:48 23:51:07 50° 260° (W) 23:55:29 437.250
TISAT 1 10 Dec 23:47:06 23:50:20 21° 63° (ENE) 23:53:34 437.305
PHONESAT 2.4 10 Dec 23:57:15 23:59:09 18° 174° (S) 00:01:03 2401.200-2431.200
CUBEBUG 1 10 Dec 23:59:54 00:03:39 28° 265° (W) 00:07:27 437.445
O/OREOS (USA 219) 11 Dec 00:03:04 00:07:13 36° 56° (ENE) 00:11:20 437.305
ESTCUBE 1 11 Dec 00:03:54 00:06:53 17° 269° (W) 00:09:53 437.505/2401.250
M-CUBED/EXP-1 PRIME 11 Dec 00:12:21 00:14:57 15° 52° (NE) 00:17:36 437.505
UKube-1 11 Dec 00:16:15 00:20:31 61° 258° (WSW) 00:24:50 .
SPROUT 11 Dec 00:18:27 00:22:27 37° 263° (W) 00:26:28 437.525
DX 1 11 Dec 00:19:34 00:23:43 43° 261° (W) 00:27:55 434.975-435.025
NANOSAT C BR1 11 Dec 00:21:15 00:25:29 72° 286° (WNW) 00:29:39 145.865
Oscar 19 11 Dec 00:22:47 00:25:13 13° 87° (E) 00:27:39 437.125/150
VELOX 1 11 Dec 00:24:22 00:27:55 23° 267° (W) 00:31:30 145.980
SWISSCUBE 11 Dec 00:31:59 00:35:09 18° 59° (ENE) 00:38:18 437.505
QB50P2 11 Dec 00:32:20 00:36:26 48° 289° (WNW) 00:40:30 145.880/145.840
POLYITAN 1 11 Dec 00:32:42 00:36:50 51° 288° (WNW) 00:40:53 437.675
SO-50 11 Dec 00:33:02 00:33:59 11° 14° (NNE) 00:34:56 436.795
Cosmos 2499 11 Dec 00:34:51 00:43:36 90° 276° (W) 00:52:35 435.465 / 435.565
BEESAT 11 Dec 00:35:31 00:38:37 18° 59° (ENE) 00:41:44 436.000
GONETS M04 11 Dec 00:39:25 00:48:08 86° 96° (E) 00:56:53
DUCHIFAT 1 11 Dec 00:40:51 00:44:56 49° 289° (WNW) 00:48:58 145.980
QB50P1 11 Dec 00:44:09 00:48:06 39° 291° (WNW) 00:52:02 145.935-145.965
50 SAT 11 Dec 00:49:13 00:50:08 11° 270° (W) 00:51:04 437.505
JAS-2 11 Dec 00:55:30 01:00:06 33° 295° (WNW) 01:04:54 435.910
Gurwin Techsat 1B 11 Dec 00:59:38 01:02:42 15° 88° (E) 01:05:47 435.225
ITUPSAT 1 11 Dec 01:05:25 01:09:33 30° 65° (ENE) 01:13:42 437.325
POPSAT HIP 1 11 Dec 01:06:35 01:10:04 25° 295° (WNW) 01:13:31 437.405
AO-85 11 Dec 01:06:52 01:11:39 60° 123° (ESE) 01:16:06 145.980
BUGSAT 1 11 Dec 01:16:35 01:20:39 51° 289° (WNW) 01:24:38 437.445
TISAT 1 11 Dec 01:21:39 01:25:42 43° 261° (W) 01:29:47 437.305
AUBIESAT-1 11 Dec 01:27:43 01:31:58 56° 66° (ENE) 01:36:27 437.475
PHONESAT 2.4 11 Dec 01:32:02 01:33:47 16° 190° (S) 01:35:31 2401.200-2431.200
O/OREOS (USA 219) 11 Dec 01:42:41 01:46:31 28° 255° (WSW) 01:50:18 437.305
M-CUBED/EXP-1 PRIME 11 Dec 01:44:25 01:48:44 84° 251° (WSW) 01:53:21 437.505
Oscar 19 11 Dec 02:00:02 02:05:16 90° 286° (WNW) 02:10:29 437.125/150
SWISSCUBE 11 Dec 02:07:42 02:12:26 67° 258° (WSW) 02:17:12 437.505
BEESAT 11 Dec 02:11:08 02:15:54 69° 257° (WSW) 02:20:40 436.000
SO-50 11 Dec 02:12:06 02:16:01 27° 37° (NE) 02:19:52 436.795
KKS-1 11 Dec 02:24:19 02:27:39 21° 62° (ENE) 02:31:00 437.445
MOZHAYETS 4 11 Dec 02:30:59 02:35:24 49° 71° (ENE) 02:39:49
Cosmos 2499 11 Dec 02:31:08 02:38:02 25° 301° (WNW) 02:45:01 435.465 / 435.565
Gurwin Techsat 1B 11 Dec 02:37:57 02:43:19 81° 285° (WNW) 02:48:37 435.225
GONETS M04 11 Dec 02:39:24 02:46:10 25° 301° (WNW) 02:52:59
ITAMSAT 1 11 Dec 02:40:17 02:44:42 28° 94° (E) 02:49:05 435.822/435.867
ITUPSAT 1 11 Dec 02:42:53 02:47:17 36° 263° (W) 02:51:43 437.325
AO-7 11 Dec 02:45:45 02:52:26 26° 92° (E) 02:59:05 29.400- 29.500
AO-85 11 Dec 02:48:27 02:52:23 26° 321° (NW) 02:56:05 145.980
CUBESAT XI-V 11 Dec 02:50:11 02:52:38 14° 58° (ENE) 02:55:05 437.345
AUBIESAT-1 11 Dec 03:03:43 03:06:44 18° 265° (W) 03:09:51 437.475
M-CUBED/EXP-1 PRIME 11 Dec 03:23:28 03:23:57 10° 270° (W) 03:24:28 437.505
Oscar 19 11 Dec 03:40:53 03:43:52 16° 304° (NW) 03:46:51 437.125/150
STARS 11 Dec 03:50:30 03:54:54 67° 72° (ENE) 03:59:19 437.465
SO-50 11 Dec 03:52:20 03:56:46 55° 238° (WSW) 04:01:07 436.795
Cosmos 2504 11 Dec 03:56:42 03:59:36 12° 44° (NE) 04:02:26 435.465 / 435.565
KKS-1 11 Dec 03:59:33 04:03:53 50° 260° (W) 04:08:17 437.445
BEESAT 3 11 Dec 04:02:11 04:06:00 57° 123° (ESE) 04:09:54 437.485
MOZHAYETS 4 11 Dec 04:09:26 04:12:50 20° 268° (W) 04:16:14
YUBILEINY 11 Dec 04:11:17 04:18:30 27° 61° (ENE) 04:25:40 435.215
ITAMSAT 1 11 Dec 04:19:26 04:24:20 44° 293° (WNW) 04:29:13 435.822/435.867
Gurwin Techsat 1B 11 Dec 04:19:40 04:22:26 14° 306° (NW) 04:25:13 435.225
CUBESAT XI-V 11 Dec 04:24:47 04:29:23 81° 258° (WSW) 04:34:01 437.345
AO-7 11 Dec 04:37:40 04:46:05 80° 292° (WNW) 04:54:27 29.400- 29.500
BEESAT 2 11 Dec 04:42:46 04:46:42 70° 124° (ESE) 04:50:41 435.950
RS-15 11 Dec 04:44:41 04:51:09 17° 94° (E) 04:57:42 29.354- 29.394
Cosmos 2491 11 Dec 04:48:59 04:54:08 17° 74° (ENE) 04:59:16 435.465 / 435.565
NOAA 15 11 Dec 05:00:45 05:01:31 10° 85° (E) 05:02:18 137.62
BRITE-PL 11 Dec 05:01:20 05:06:39 45° 97° (E) 05:12:04 437.365/2234.400
HORYU 2 11 Dec 05:01:33 05:05:20 27° 95° (E) 05:09:03 437.375
STRAND 1 11 Dec 05:20:12 05:23:58 21° 60° (ENE) 05:27:43 437.568
Cubesat XI-IV 11 Dec 05:21:14 05:24:19 15° 88° (E) 05:27:23 437.490
STARS 11 Dec 05:29:16 05:31:42 14° 270° (W) 05:34:09 437.465
DOVE 4 11 Dec 05:32:12 05:35:42 18° 88° (E) 05:39:07 437.250
BEESAT 3 11 Dec 05:40:51 05:43:57 22° 323° (NW) 05:47:05 437.485
Cosmos 2504 11 Dec 05:47:23 05:55:49 47° 71° (ENE) 06:03:44 435.465 / 435.565
NOAA 18 11 Dec 05:47:50 05:51:23 17° 89° (E) 05:54:53 137.9125
GOMX 1 11 Dec 05:47:52 05:53:16 52° 98° (E) 05:58:34 467.674
AIST 1 11 Dec 05:48:24 05:52:34 40° 75° (ENE) 05:56:43
YUBILEINY 11 Dec 06:07:31 06:16:23 81° 264° (W) 06:25:13 435.215
LilacSat-2 11 Dec 06:13:57 06:17:36 46° 99° (E) 06:21:13 437.200
AIST 2 11 Dec 06:20:48 06:23:57 22° 114° (ESE) 06:27:09 435.215
BEESAT 2 11 Dec 06:21:57 06:24:55 20° 324° (NW) 06:27:54 435.950
AO-7 11 Dec 06:31:30 06:37:42 24° 314° (NW) 06:43:53 29.400- 29.500
CUTE-I 11 Dec 06:31:55 06:37:12 61° 101° (ESE) 06:42:27 437.470
NOAA 15 11 Dec 06:36:55 06:42:13 73° 103° (ESE) 06:47:30 137.62
HORYU 2 11 Dec 06:37:54 06:41:56 35° 293° (WNW) 06:45:57 437.375
BRITE-PL 11 Dec 06:40:06 06:44:56 32° 295° (WNW) 06:49:54 437.365/2234.400
Cosmos 2491 11 Dec 06:40:42 06:49:27 77° 95° (E) 06:58:12 435.465 / 435.565
CANX-2 11 Dec 06:42:22 06:44:02 12° 88° (E) 06:45:42 2200.000
RS-15 11 Dec 06:49:22 07:00:57 65° 117° (ESE) 07:13:02 29.354- 29.394
STRAND 1 11 Dec 06:57:37 07:02:42 63° 258° (WSW) 07:07:48 437.568
Cubesat XI-IV 11 Dec 06:59:41 07:05:03 81° 286° (WNW) 07:10:22 437.490
HO-68 11 Dec 07:01:49 07:07:42 26° 92° (E) 07:13:32 435.675
DOVE 4 11 Dec 07:08:39 07:13:56 70° 287° (WNW) 07:19:00 437.250
GOMX 1 11 Dec 07:26:27 07:31:01 28° 297° (WNW) 07:35:34 467.674
AIST 1 11 Dec 07:26:33 07:29:54 21° 273° (W) 07:33:14
NOAA 18 11 Dec 07:27:06 07:32:40 78° 288° (WNW) 07:38:10 137.9125
CUBEBUG 2 11 Dec 07:29:54 07:32:11 14° 88° (E) 07:34:27 437.445
Cosmos 2504 11 Dec 07:41:02 07:49:12 46° 273° (W) 07:56:53 435.465 / 435.565
CINEMA 3 11 Dec 07:47:24 07:52:13 80° 104° (ESE) 07:56:44 145.822/145.860
LilacSat-2 11 Dec 07:49:10 07:51:33 16° 297° (WNW) 07:53:56 437.200
AAUSAT CUBESAT 2 11 Dec 07:54:23 07:57:37 21° 93° (E) 08:00:50 437.432
AO-85 11 Dec 07:55:54 07:58:59 20° 35° (NE) 08:01:57 145.980
CUTE 1.7 + AOD 2 11 Dec 07:56:57 08:01:09 61° 101° (E) 08:05:20 437.475
AIST 2 11 Dec 07:58:08 08:02:08 49° 313° (NW) 08:06:13 435.215
UWE-3 11 Dec 08:00:08 08:03:08 18° 91° (E) 08:06:03 435.000/436.395/437.385
PRISM 11 Dec 08:02:01 08:05:54 44° 70° (ENE) 08:09:50 437.425
YUBILEINY 11 Dec 08:06:13 08:11:44 19° 286° (WNW) 08:17:18 435.215
CUTE-I 11 Dec 08:12:46 08:16:50 23° 300° (WNW) 08:20:53 437.470
CANX-2 11 Dec 08:16:10 08:20:24 73° 285° (WNW) 08:24:37 2200.000
NOAA 15 11 Dec 08:17:47 08:21:26 19° 302° (WNW) 08:25:06 137.62
CUSAT 1 11 Dec 08:23:38 08:25:38 19° 94° (E) 08:27:34 437.405
ZACube-1 11 Dec 08:28:24 08:31:42 22° 93° (E) 08:34:57 437.345
COMPASS 1 11 Dec 08:29:41 08:33:51 64° 101° (E) 08:38:00 437.405
SEEDS 11 Dec 08:29:55 08:34:08 86° 284° (WNW) 08:38:20 437.485
FUNcube-1 11 Dec 08:32:48 08:36:08 23° 93° (E) 08:39:25 145.935
Cosmos 2499 11 Dec 08:34:14 08:35:08 10° 42° (NE) 08:36:00 435.465 / 435.565
UNISAT 6 11 Dec 08:39:44 08:43:46 30° 66° (ENE) 08:47:45 437.425
Cosmos 2491 11 Dec 08:40:02 08:47:16 28° 298° (WNW) 08:54:32 435.465 / 435.565
Cubesat XI-IV 11 Dec 08:41:29 08:44:18 15° 306° (NW) 08:47:07 437.490
DOVE 4 11 Dec 08:48:29 08:50:38 13° 306° (NW) 08:52:46 437.250
HO-68 11 Dec 08:48:50 08:56:01 70° 291° (WNW) 09:03:10 435.675
GONETS M04 11 Dec 08:51:22 08:54:51 13° 47° (NE) 08:58:19
Oscar 11 11 Dec 08:55:44 08:59:46 38° 97° (E) 09:03:47 145.826/435.025
RS-15 11 Dec 09:02:20 09:14:01 53° 324° (NW) 09:26:07 29.354- 29.394
CUBEBUG 2 11 Dec 09:04:59 09:09:18 63° 287° (WNW) 09:13:28 437.445
TIGRISAT 11 Dec 09:07:23 09:11:53 50° 71° (ENE) 09:16:19 435.000
HUMSAT D 11 Dec 09:09:23 09:09:56 10° 87° (E) 09:10:29 437.325/437.525
NOAA 18 11 Dec 09:09:29 09:12:26 15° 307° (NW) 09:15:23 137.9125
ANTELSAT 11 Dec 09:10:16 09:14:50 56° 72° (ENE) 09:19:19 437.575/2403.000
CINEMA 3 11 Dec 09:26:00 09:28:39 15° 302° (WNW) 09:31:14 145.822/145.860
JAS-2 11 Dec 09:26:34 09:31:18 26° 62° (ENE) 09:35:43 435.910
AAUSAT CUBESAT 2 11 Dec 09:29:22 09:33:14 38° 290° (WNW) 09:37:05 437.432
CUTE 1.7 + AOD 2 11 Dec 09:34:00 09:36:32 16° 299° (WNW) 09:39:04 437.475
UWE-3 11 Dec 09:35:46 09:39:52 46° 289° (WNW) 09:43:52 435.000/436.395/437.385
AO-85 11 Dec 09:35:49 09:39:48 64° 236° (SW) 09:43:38 145.980
PRISM 11 Dec 09:38:34 09:41:25 18° 268° (W) 09:44:19 437.425
DELFI C3 11 Dec 09:38:55 09:42:41 40° 98° (E) 09:46:27 145.870
AIST 2 11 Dec 09:39:45 09:41:37 13° 335° (NNW) 09:43:29 435.215
NANOSAT C BR1 11 Dec 09:42:25 09:44:54 15° 60° (ENE) 09:47:23 145.865
QB50P2 11 Dec 09:52:56 09:56:11 21° 63° (ENE) 09:59:26 145.880/145.840
POLYITAN 1 11 Dec 09:53:23 09:56:33 21° 63° (ENE) 09:59:45 437.675
DUCHIFAT 1 11 Dec 10:00:49 10:04:00 21° 63° (ENE) 10:07:11 145.980
DANDE 11 Dec 10:02:49 10:06:37 79° 281° (W) 10:09:37 436.750
QB50P1 11 Dec 10:04:07 10:07:39 25° 65° (ENE) 10:11:11 145.935-145.965
ZACube-1 11 Dec 10:04:14 10:08:08 37° 291° (WNW) 10:11:58 437.345
CUSAT 1 11 Dec 10:06:23 10:07:32 12° 291° (WNW) 10:08:40 437.405
COMPASS 1 11 Dec 10:06:34 10:08:55 15° 299° (WNW) 10:11:16 437.405
SEEDS 11 Dec 10:08:07 10:09:08 11° 302° (WNW) 10:10:10 437.485
FUNcube-1 11 Dec 10:08:39 10:12:30 36° 291° (WNW) 10:16:18 145.935
PCSat 11 Dec 10:09:28 10:14:28 40° 114° (ESE) 10:19:30 145.827
UNISAT 6 11 Dec 10:16:08 10:20:23 34° 264° (W) 10:24:37 437.425
Cosmos 2499 11 Dec 10:23:12 10:31:16 42° 69° (ENE) 10:38:45 435.465 / 435.565
POPSAT HIP 1 11 Dec 10:25:39 10:29:39 39° 69° (ENE) 10:33:40 437.405
Oscar 11 11 Dec 10:32:15 10:35:43 24° 295° (WNW) 10:39:11 145.826/435.025
BUGSAT 1 11 Dec 10:34:49 10:37:51 19° 62° (ENE) 10:40:53 437.445
HO-68 11 Dec 10:38:03 10:42:32 18° 313° (NW) 10:47:00 435.675
BEESAT 3 11 Dec 10:39:21 10:42:04 17° 34° (NNE) 10:44:47 437.485
HUMSAT D 11 Dec 10:42:00 10:46:06 79° 286° (WNW) 10:50:10 437.325/437.525
TIGRISAT 11 Dec 10:45:21 10:48:48 20° 268° (W) 10:52:16 435.000
GONETS M04 11 Dec 10:45:46 10:54:15 52° 73° (ENE) 11:02:43
ANTELSAT 11 Dec 10:48:39 10:51:51 18° 269° (W) 10:55:03 437.575/2403.000
JAS-2 11 Dec 11:10:10 11:16:10 56° 259° (W) 11:21:35 435.910
DELFI C3 11 Dec 11:14:18 11:17:15 20° 296° (WNW) 11:20:14 145.870
NANOSAT C BR1 11 Dec 11:15:53 11:20:08 66° 259° (WSW) 11:24:24 145.865
RS-15 11 Dec 11:19:12 11:30:05 34° 357° (N) 11:41:04 29.354- 29.394
BEESAT 2 11 Dec 11:20:33 11:23:34 20° 36° (NE) 11:26:34 435.950
QB50P2 11 Dec 11:27:37 11:31:42 44° 261° (W) 11:35:49 145.880/145.840
POLYITAN 1 11 Dec 11:27:55 11:32:04 46° 261° (W) 11:36:13 437.675
AISAT 11 Dec 11:33:58 11:37:39 24° 94° (E) 11:41:18 437.250
DUCHIFAT 1 11 Dec 11:35:18 11:39:24 45° 261° (W) 11:43:30 145.980
QB50P1 11 Dec 11:39:19 11:43:16 36° 263° (W) 11:47:14 145.935-145.965
Oscar 19 11 Dec 11:41:54 11:46:11 28° 63° (ENE) 11:50:30 437.125/150
CUBEBUG 1 11 Dec 11:44:26 11:48:42 43° 98° (E) 11:52:54 437.445
ESTCUBE 1 11 Dec 11:51:04 11:55:37 79° 103° (ESE) 12:00:09 437.505/2401.250
PCSat 11 Dec 11:52:48 11:57:53 40° 314° (NW) 12:03:00 145.827
AO-7 11 Dec 12:00:47 12:04:53 15° 36° (NE) 12:08:59 29.400- 29.500
SPROUT 11 Dec 12:00:57 12:04:43 29° 95° (E) 12:08:27 437.525
UKube-1 11 Dec 12:00:58 12:03:54 18° 92° (E) 12:06:49 .
POPSAT HIP 1 11 Dec 12:02:11 12:05:34 22° 267° (W) 12:08:57 437.405
DX 1 11 Dec 12:04:40 12:08:20 25° 95° (E) 12:11:57 434.975-435.025
BUGSAT 1 11 Dec 12:08:45 12:12:52 49° 260° (W) 12:17:02 437.445
50 SAT 11 Dec 12:09:06 12:12:30 41° 99° (E) 12:15:54 437.505
VELOX 1 11 Dec 12:10:00 12:14:23 52° 100° (E) 12:18:45 145.980
BEESAT 3 11 Dec 12:16:14 12:20:15 86° 229° (SW) 12:24:14 437.485
Cosmos 2499 11 Dec 12:16:28 12:24:32 49° 272° (W) 12:32:02 435.465 / 435.565
Gurwin Techsat 1B 11 Dec 12:23:08 12:27:53 34° 64° (ENE) 12:32:38 435.225
ITAMSAT 1 11 Dec 12:26:54 12:27:45 10° 51° (NE) 12:28:35 435.822/435.867
GONETS M04 11 Dec 12:42:58 12:50:53 41° 274° (W) 12:58:49
BEESAT 2 11 Dec 12:57:45 13:01:47 71° 236° (SW) 13:05:47 435.950
AIST 2 11 Dec 13:01:03 13:02:34 12° 24° (NNE) 13:04:05 435.215
TISAT 1 11 Dec 13:02:36 13:05:57 22° 93° (E) 13:09:16 437.305
AISAT 11 Dec 13:10:03 13:14:14 39° 292° (WNW) 13:18:23 437.250
Oscar 19 11 Dec 13:20:23 13:25:17 46° 261° (W) 13:30:16 437.125/150
CUBEBUG 1 11 Dec 13:21:13 13:24:44 23° 296° (WNW) 13:28:14 437.445
ESTCUBE 1 11 Dec 13:29:25 13:31:50 14° 302° (WNW) 13:34:15 437.505/2401.250
RS-15 11 Dec 13:34:39 13:46:31 47° 30° (NNE) 13:58:09 29.354- 29.394
UKube-1 11 Dec 13:36:00 13:40:15 52° 289° (WNW) 13:44:27 .
SPROUT 11 Dec 13:36:51 13:40:37 30° 293° (WNW) 13:44:22 437.525
PCSat 11 Dec 13:40:20 13:42:51 13° 337° (NNW) 13:45:22 145.827
DX 1 11 Dec 13:40:33 13:44:37 37° 292° (WNW) 13:48:38 434.975-435.025
50 SAT 11 Dec 13:43:13 13:45:30 16° 296° (WNW) 13:47:46 437.505
VELOX 1 11 Dec 13:47:14 13:50:30 20° 298° (WNW) 13:53:45 145.980
AO-7 11 Dec 13:47:51 13:55:40 48° 59° (ENE) 14:03:33 29.400- 29.500
ISS 11 Dec 13:52:23 13:54:20 15° 136° (SE) 13:56:17 145.825
ITAMSAT 1 11 Dec 14:01:03 14:06:10 58° 70° (ENE) 14:11:17 435.822/435.867
Gurwin Techsat 1B 11 Dec 14:02:50 14:07:46 38° 263° (W) 14:12:44 435.225
SWISSCUBE 11 Dec 14:05:05 14:08:56 24° 93° (E) 14:12:47 437.505
BEESAT 11 Dec 14:08:31 14:12:20 23° 93° (E) 14:16:08 436.000
O/OREOS (USA 219) 11 Dec 14:19:16 14:22:45 22° 102° (ESE) 14:26:14 437.305
TISAT 1 11 Dec 14:37:48 14:41:44 38° 291° (WNW) 14:45:36 437.305
AUBIESAT-1 11 Dec 14:37:56 14:41:45 26° 99° (E) 14:45:24 437.475
AIST 2 11 Dec 14:38:06 14:42:08 41° 45° (NE) 14:46:10 435.215
ITUPSAT 1 11 Dec 14:39:39 14:44:13 44° 99° (E) 14:48:45 437.325
Cosmos 2491 11 Dec 14:53:46 14:55:50 11° 44° (NE) 14:57:55 435.465 / 435.565
M-CUBED/EXP-1 PRIME 11 Dec 14:54:51 14:59:21 46° 104° (ESE) 15:03:36 437.505
GOMX 1 11 Dec 15:24:41 15:26:29 12° 53° (NE) 15:28:19 467.674
ISS 11 Dec 15:27:06 15:30:24 81° 153° (SSE) 15:33:42 145.825
AO-7 11 Dec 15:40:34 15:48:29 47° 260° (W) 15:56:29 29.400- 29.500
ITAMSAT 1 11 Dec 15:42:06 15:46:00 21° 268° (W) 15:49:56 435.822/435.867
SWISSCUBE 11 Dec 15:42:24 15:46:55 44° 291° (WNW) 15:51:25 437.505
BEESAT 11 Dec 15:45:47 15:50:20 45° 291° (WNW) 15:54:50 436.000
KKS-1 11 Dec 15:47:34 15:51:15 24° 94° (E) 15:54:53 437.445
RS-15 11 Dec 15:47:50 16:00:14 79° 238° (WSW) 16:12:13 29.354- 29.394
O/OREOS (USA 219) 11 Dec 15:57:29 16:01:52 46° 301° (WNW) 16:06:15 437.305
MOZHAYETS 4 11 Dec 15:59:32 16:04:06 76° 102° (ESE) 16:08:40
HORYU 2 11 Dec 16:02:13 16:06:21 37° 67° (ENE) 16:10:28 437.375
AUBIESAT-1 11 Dec 16:11:59 16:16:16 40° 297° (WNW) 16:20:19 437.475
BRITE-PL 11 Dec 16:15:32 16:19:57 61° 72° (ENE) 16:24:48 437.365/2234.400
AIST 2 11 Dec 16:16:54 16:20:28 27° 244° (WSW) 16:24:03 435.215
ITUPSAT 1 11 Dec 16:17:57 16:21:49 25° 297° (WNW) 16:25:41 437.325
CUTE-I 11 Dec 16:18:39 16:22:43 22° 59° (ENE) 16:26:47 437.470
CUBESAT XI-V 11 Dec 16:18:43 16:22:13 21° 92° (E) 16:25:43 437.345
NOAA 15 11 Dec 16:21:53 16:26:06 25° 61° (ENE) 16:30:19 137.62
M-CUBED/EXP-1 PRIME 11 Dec 16:29:44 16:33:31 25° 303° (WNW) 16:37:11 437.505
DOVE 4 11 Dec 16:40:05 16:44:09 25° 62° (ENE) 16:48:19 437.250
Cubesat XI-IV 11 Dec 16:45:35 16:50:25 35° 65° (ENE) 16:55:15 437.490
Cosmos 2491 11 Dec 16:47:15 16:55:35 46° 71° (ENE) 17:03:50 435.465 / 435.565
LilacSat-2 11 Dec 16:58:42 17:02:13 36° 70° (ENE) 17:05:44 437.200
GOMX 1 11 Dec 16:58:45 17:03:31 71° 74° (ENE) 17:08:41 467.674
ISS 11 Dec 17:03:58 17:07:07 39° 353° (N) 17:10:15 145.825
PCSat 11 Dec 17:11:07 17:14:45 18° 31° (NNE) 17:18:22 145.827
STARS 11 Dec 17:12:50 17:17:17 83° 106° (ESE) 17:21:41 437.465
NOAA 18 11 Dec 17:16:31 17:21:44 44° 66° (ENE) 17:26:59 137.9125
CINEMA 3 11 Dec 17:16:33 17:19:35 16° 59° (ENE) 17:22:38 145.822/145.860
YUBILEINY 11 Dec 17:17:59 17:24:39 25° 78° (ENE) 17:31:20 435.215
KKS-1 11 Dec 17:23:45 17:27:56 39° 292° (WNW) 17:32:05 437.445
HO-68 11 Dec 17:34:11 17:40:07 29° 56° (NE) 17:46:05 435.675
MOZHAYETS 4 11 Dec 17:38:08 17:40:42 15° 301° (WNW) 17:43:16
CANX-2 11 Dec 17:38:14 17:40:27 14° 60° (ENE) 17:42:39 2200.000
HORYU 2 11 Dec 17:39:14 17:42:59 26° 265° (W) 17:46:44 437.375
SEEDS 11 Dec 17:51:53 17:53:20 12° 59° (ENE) 17:54:48 437.485
CUBESAT XI-V 11 Dec 17:55:20 17:59:52 50° 289° (WNW) 18:04:23 437.345
BRITE-PL 11 Dec 17:56:07 17:59:01 17° 273° (W) 18:02:03 437.365/2234.400
CUTE-I 11 Dec 17:57:01 18:02:20 63° 258° (WSW) 18:07:40 437.470
NOAA 15 11 Dec 18:00:28 18:05:34 53° 260° (W) 18:10:43 137.62
RS-15 11 Dec 18:02:02 18:10:40 23° 262° (W) 18:19:10 29.354- 29.394
SO-50 11 Dec 18:09:50 18:13:33 23° 114° (ESE) 18:17:15 436.795
DOVE 4 11 Dec 18:16:36 18:21:28 52° 262° (W) 18:26:35 437.250
AIST 1 11 Dec 18:21:43 18:24:54 20° 86° (E) 18:28:07
Cubesat XI-IV 11 Dec 18:25:29 18:30:27 37° 263° (W) 18:35:26 437.490
Cosmos 2504 11 Dec 18:29:14 18:36:44 36° 83° (E) 18:44:30 435.465 / 435.565
CUBEBUG 2 11 Dec 18:30:16 18:33:42 20° 63° (ENE) 18:37:07 437.445
LilacSat-2 11 Dec 18:33:47 18:36:37 20° 267° (W) 18:39:29 437.200
GOMX 1 11 Dec 18:39:15 18:42:14 16° 274° (W) 18:45:22 467.674
ISS 11 Dec 18:40:49 18:44:01 45° 13° (NNE) 18:47:14 145.825
Cosmos 2491 11 Dec 18:44:18 18:52:27 46° 273° (W) 19:00:35 435.465 / 435.565
AAUSAT CUBESAT 2 11 Dec 18:47:40 18:50:50 22° 65° (ENE) 18:54:01 437.432
CUSAT 1 11 Dec 18:48:55 18:52:24 28° 74° (ENE) 18:56:45 437.405
STARS 11 Dec 18:50:52 18:53:00 13° 302° (WNW) 18:55:07 437.465
CINEMA 3 11 Dec 18:51:02 18:56:04 83° 258° (WSW) 19:01:07 145.822/145.860
CUTE 1.7 + AOD 2 11 Dec 18:52:17 18:56:26 64° 74° (ENE) 19:00:37 437.475
PCSat 11 Dec 18:53:48 18:59:13 65° 53° (NE) 19:04:37 145.827
NOAA 18 11 Dec 18:57:38 19:02:31 31° 264° (W) 19:07:27 137.9125
UWE-3 11 Dec 18:59:35 19:03:18 25° 65° (ENE) 19:06:58 435.000/436.395/437.385
STRAND 1 11 Dec 19:05:01 19:09:40 34° 96° (E) 19:14:17 437.568
CANX-2 11 Dec 19:11:35 19:15:46 70° 258° (WSW) 19:20:00 2200.000
YUBILEINY 11 Dec 19:11:44 19:20:28 79° 280° (W) 19:29:18 435.215
HO-68 11 Dec 19:20:10 19:27:19 70° 256° (WSW) 19:34:31 435.675
COMPASS 1 11 Dec 19:23:03 19:27:07 63° 74° (ENE) 19:31:13 437.405
SEEDS 11 Dec 19:24:14 19:28:24 86° 258° (WSW) 19:32:36 437.485
ZACube-1 11 Dec 19:26:45 19:30:34 28° 66° (ENE) 19:34:20 437.345
FUNcube-1 11 Dec 19:30:53 19:34:42 28° 67° (ENE) 19:38:27 145.935
SO-50 11 Dec 19:49:02 19:53:43 57° 312° (NW) 19:58:20 436.795
Oscar 11 11 Dec 19:53:14 19:57:18 43° 70° (ENE) 20:01:24 145.826/435.025
AIST 1 11 Dec 19:58:05 20:02:12 41° 285° (WNW) 20:06:23
HUMSAT D 11 Dec 20:03:05 20:04:53 13° 59° (ENE) 20:06:40 437.325/437.525
CUBEBUG 2 11 Dec 20:05:19 20:09:58 55° 260° (W) 20:14:33 437.445
ISS 11 Dec 20:17:21 20:20:35 52° 212° (SSW) 20:23:49 145.825
Cosmos 2504 11 Dec 20:21:11 20:29:39 61° 285° (WNW) 20:38:30 435.465 / 435.565
AAUSAT CUBESAT 2 11 Dec 20:22:16 20:26:06 38° 263° (W) 20:29:58 437.432
DELFI C3 11 Dec 20:27:26 20:31:01 35° 69° (ENE) 20:34:37 145.870
CUTE 1.7 + AOD 2 11 Dec 20:30:35 20:32:43 14° 271° (W) 20:34:50 437.475
CUSAT 1 11 Dec 20:30:37 20:34:16 31° 264° (W) 20:38:51 437.405
CINEMA 3 11 Dec 20:32:16 20:33:56 11° 275° (W) 20:35:36 145.822/145.860
DANDE 11 Dec 20:34:49 20:37:51 84° 75° (ENE) 20:41:42 436.750
UWE-3 11 Dec 20:35:11 20:39:33 42° 262° (W) 20:43:53 435.000/436.395/437.385
PCSat 11 Dec 20:38:01 20:42:09 22° 252° (WSW) 20:46:16 145.827
STRAND 1 11 Dec 20:44:14 20:48:50 35° 295° (WNW) 20:53:25 437.568
COMPASS 1 11 Dec 21:01:06 21:03:06 13° 271° (W) 21:05:07 437.405
ZACube-1 11 Dec 21:02:39 21:06:45 34° 264° (W) 21:10:49 437.345
FUNcube-1 11 Dec 21:06:46 21:10:50 34° 264° (W) 21:14:52 145.935
YUBILEINY 11 Dec 21:12:50 21:18:55 20° 305° (NW) 21:25:05 435.215
HO-68 11 Dec 21:13:09 21:16:21 13° 276° (W) 21:19:35 435.675
PRISM 11 Dec 21:15:10 21:19:13 46° 100° (E) 21:23:14 437.425
ESTCUBE 1 11 Dec 21:19:18 21:21:39 14° 58° (ENE) 21:24:00 437.505/2401.250
Oscar 11 11 Dec 21:30:24 21:33:39 21° 268° (W) 21:36:54 145.826/435.025
SO-50 11 Dec 21:32:16 21:35:09 16° 334° (NNW) 21:38:00 436.795
HUMSAT D 11 Dec 21:35:45 21:39:56 78° 258° (WSW) 21:44:05 437.325/437.525
DELFI C3 11 Dec 22:02:54 22:05:55 21° 267° (W) 22:08:59 145.870
UNISAT 6 11 Dec 22:04:24 22:08:29 38° 97° (E) 22:12:29 437.425
JAS-2 11 Dec 22:16:54 22:19:23 13° 88° (E) 22:21:56 435.910
Cosmos 2504 11 Dec 22:20:15 22:25:15 16° 310° (NW) 22:30:21 435.465 / 435.565
TIGRISAT 11 Dec 22:32:15 22:36:38 70° 102° (ESE) 22:40:53 435.000
PHONESAT 2.4 11 Dec 22:33:05 22:34:24 13° 164° (SSE) 22:35:41 2401.200-2431.200
AISAT 11 Dec 22:34:02 22:37:58 32° 66° (ENE) 22:41:56 437.250
ANTELSAT 11 Dec 22:35:23 22:39:46 79° 103° (ESE) 22:44:03 437.575/2403.000
